FW7438 Weather Reports


time (UTC)temp
C
wind
direction
speed
KPH
gust
KPH
rain 1hr
cm
rain 24hr
cm
rain mn
cm
humidity
%
barometer
mb
20260510142956 17 333 4.8 17.7 0.00 0.00 0.00 69 1018.3
20260510141456 17 45 3.2 9.7 0.00 0.00 0.00 72 1018.1
20260510135957 16 68 3.2 12.9 0.00 0.00 0.00 74 1017.8
20260510134455 16 117 4.8 17.7 0.00 0.00 0.00 75 1017.6
20260510132955 16 96 4.8 17.7 0.00 0.00 0.00 76 1017.4
20260510125955 16 70 1.6 8.0 0.00 0.00 0.00 81 1016.9
20260510124455 15 101 3.2 14.5 0.00 0.00 0.00 82 1016.7
20260510122955 15 20 3.2 12.9 0.00 0.00 0.00 84 1016.4
20260510121456 14 94 3.2 9.7 0.00 0.00 0.00 86 1016.1
20260510115954 14 75 1.6 8.0 0.00 0.00 0.00 87 1016.0
20260510114456 13 77 1.6 6.4 0.00 0.00 0.00 87 1015.8
20260510112955 13 99 1.6 8.0 0.00 0.00 0.00 88 1015.4
20260510111455 13 136 0.0 4.8 0.00 0.00 0.00 88 1015.2
20260510105953 13 152 0.0 3.2 0.00 0.00 0.00 89 1015.0
20260510104454 13 185 0.0 1.6 0.00 0.00 0.00 89 1015.0
20260510102954 12 185 0.0 1.6 0.00 0.00 0.00 90 1015.0
20260510101455 12 244 0.0 0.0 0.00 0.00 0.00 91 1014.9
20260510095955 12 244 0.0 0.0 0.00 0.03 0.00 91 1014.4
20260510092954 12 244 0.0 0.0 0.00 0.03 0.00 90 1014.0
20260510091454 12 244 0.0 0.0 0.00 0.03 0.00 90 1013.7
20260510085957 12 244 0.0 0.0 0.00 0.03 0.00 89 1013.8
20260510084455 12 244 0.0 0.0 0.00 0.03 0.00 89 1013.7
20260510082955 12 244 0.0 0.0 0.00 0.03 0.00 90 1013.4
20260510081455 12 244 0.0 0.0 0.00 0.03 0.00 90 1013.2
20260510075956 12 244 0.0 0.0 0.00 0.03 0.00 89 1013.4
20260510074455 12 244 0.0 0.0 0.00 0.03 0.00 89 1013.5
20260510072955 12 244 0.0 0.0 0.00 0.03 0.00 88 1013.4
20260510071454 12 244 0.0 0.0 0.00 0.03 0.00 87 1013.3
20260510062954 13 244 0.0 0.0 0.00 0.03 0.00 83 1013.3
20260510061454 14 244 0.0 1.6 0.00 0.03 0.00 81 1013.3
20260510055959 15 243 0.0 0.0 0.00 0.03 0.00 80 1013.4
20260510051458 13 231 0.0 0.0 0.00 0.03 0.00 85 1013.0
20260510044457 13 231 0.0 0.0 0.00 0.03 0.03 85 1012.5
20260510042958 14 231 0.0 0.0 0.00 0.03 0.03 84 1012.4
20260510041459 14 231 0.0 1.6 0.00 0.03 0.03 84 1012.3
20260510035959 14 232 0.0 0.0 0.00 0.03 0.03 84 1012.0
20260510034458 14 232 0.0 0.0 0.00 0.10 0.03 82 1012.0
20260510032959 14 232 0.0 0.0 0.00 0.10 0.03 80 1012.1
20260510031458 15 232 0.0 0.0 0.00 0.10 0.03 81 1012.0
20260510025958 15 232 0.0 3.2 0.00 0.10 0.03 79 1012.0
20260510024456 15 232 0.0 0.0 0.00 0.10 0.03 78 1011.6
20260510022956 16 232 0.0 0.0 0.00 0.10 0.03 76 1011.2
20260510021457 16 232 0.0 0.0 0.00 0.10 0.03 73 1010.8
20260510014457 18 232 0.0 0.0 0.00 0.10 0.03 69 1010.2
20260510012958 19 232 0.0 0.0 0.00 0.10 0.03 64 1010.1
20260510011458 20 232 0.0 0.0 0.00 0.10 0.03 59 1009.9
20260510005956 22 232 0.0 0.0 0.00 0.10 0.03 55 1009.8
20260510004456 23 231 0.0 0.0 0.00 0.10 0.03 52 1009.5
20260510001456 25 231 0.0 0.0 0.00 0.10 0.03 49 1009.6
20260509235959 26 231 0.0 0.0 0.00 0.10 0.03 46 1009.5
20260509234458 27 231 0.0 1.6 0.00 0.10 0.03 43 1009.5
20260509232958 27 230 1.6 4.8 0.00 0.10 0.03 43 1009.5
20260509231457 27 242 0.0 0.0 0.00 0.10 0.03 39 1009.6
20260509225957 27 259 0.0 3.2 0.00 0.10 0.03 41 1009.6
20260509224456 27 212 3.2 8.0 0.00 0.10 0.03 37 1009.5
20260509222956 27 288 1.6 8.0 0.00 0.10 0.03 41 1009.5
20260509221457 27 234 1.6 6.4 0.00 0.10 0.03 40 1009.5
20260509215956 27 204 1.6 8.0 0.00 0.10 0.03 44 1009.6
20260509214458 27 194 1.6 4.8 0.00 0.10 0.03 40 1009.6
20260509212956 27 277 1.6 6.4 0.00 0.10 0.03 35 1009.6
20260509211457 27 275 1.6 8.0 0.00 0.10 0.03 39 1009.6
20260509205957 27 230 3.2 12.9 0.00 0.10 0.03 39 1009.8
20260509204457 27 236 3.2 12.9 0.00 0.10 0.03 39 1009.9
20260509202956 27 306 1.6 6.4 0.00 0.10 0.03 43 1009.9
20260509201457 27 300 1.6 9.7 0.00 0.10 0.03 39 1010.1
20260509194457 26 318 1.6 9.7 0.00 0.10 0.03 41 1010.5
20260509191457 26 225 3.2 9.7 0.00 0.10 0.03 45 1010.6
20260509185957 26 311 3.2 11.3 0.00 0.10 0.03 46 1010.6
20260509182956 26 247 3.2 11.3 0.00 0.10 0.03 43 1010.6
20260509181456 25 268 3.2 11.3 0.00 0.10 0.03 44 1010.6
20260509175956 25 295 3.2 14.5 0.00 0.10 0.03 50 1010.6
20260509174456 25 296 1.6 8.0 0.00 0.10 0.03 48 1010.7
20260509172956 25 322 3.2 11.3 0.00 0.10 0.03 53 1010.8
20260509164456 24 243 3.2 9.7 0.00 0.10 0.03 58 1011.0
20260509162956 23 294 4.8 11.3 0.00 0.10 0.03 59 1011.1
20260509161456 23 261 3.2 8.0 0.00 0.10 0.03 64 1011.2
20260509155956 22 249 1.6 9.7 0.00 0.10 0.03 67 1011.2
20260509154456 21 262 3.2 9.7 0.00 0.10 0.03 67 1011.1
20260509152956 21 276 3.2 8.0 0.00 0.10 0.03 75 1011.1
20260509151456 20 304 3.2 8.0 0.00 0.10 0.03 75 1011.1
20260509145956 20 276 1.6 8.0 0.00 0.10 0.03 77 1011.1
20260509144456 18 282 1.6 6.4 0.00 0.10 0.03 83 1010.9